Regional Weather Roundup
Issued by NWS

Home | Current Version | Previous Version | Graphics & Text | Print | Product List | Glossary On
Versions: 1 2 3 4 5 6 7 8 9 10 11 12 13 14 15 16 17 18 19 20 21 22 23 24 25 26 27
000
ASUS45 KSLC 260410
RWRUT

UTAH REGIONAL WEATHER ROUNDUP
NATIONAL WEATHER SERVICE SALT LAKE CITY UT
1000 PM MDT SAT OCT 25 2014

UTZ001>011-023>025-260500-

NORTHERN UTAH

CITY           SKY/WX    TMP DP  RH WIND       PRES   REMARKS
BRIGHAM CITY   MOCLDY    70  33  25 S20G30    29.86R
HILL AFB       PTCLDY    67  40  36 S16       29.91R
LOGAN          CLEAR     66  33  29 S12       29.84F
OGDEN          PTCLDY    67  39  35 S13       29.88R
PROVO AIRPORT  PTCLDY    64  39  39 S13       29.97S
SALT LAKE CITY PTCLDY    71  38  29 S23G38    29.88R
VERNAL         PTCLDY    49  35  58 W6        30.02F
WENDOVER       CLEAR     64  32  29 SW21      29.86R
HEBER CITY     PTCLDY    57  32  38 S3        30.00S
WEST JORDAN    CLEAR     66  46  48 SE22      29.92R

$$

UTZ012>022-026-027-260500-

SOUTHERN/CENTRAL UTAH

CITY           SKY/WX    TMP DP  RH WIND       PRES   REMARKS
BLANDING       MOCLDY    55  32  41 NE5       30.23S
BRYCE CANYON   CLEAR     52  34  50 S8        30.22F
CEDAR CITY     CLEAR     63  39  41 S20G28    30.08S
DELTA          PTCLDY    62  39  41 S14       30.00R
HANKSVILLE       N/A     64  34  32 CALM      30.03S
MILFORD        CLEAR     60  39  45 S15       30.02S
MOAB/CYNLANDS  CLEAR     64  33  31 S9        30.01F
PRICE          PTCLDY    58  31  35 E6        30.06F
ST GEORGE      PTCLDY    72  41  33 SE9       30.00S
KANAB            N/A     57  36  44 S3        30.14R

$$

REGIONAL REPORTS     COLORADO/ARIZONA

CITY           SKY/WX    TMP DP  RH WIND       PRES   REMARKS
CRAIG, CO      CLEAR     46  31  55 SE5       30.10S
GRAND JUNCTION PTCLDY    54  32  43 E7        30.06F
RIFLE          CLEAR     53  34  48 SE8       30.10S
MONTROSE       MOCLDY    53  35  50 E9        30.17R
CORTEZ         MOCLDY    52  37  56 CALM      30.19S
PAGE, AZ       CLEAR     68  38  33 SW5       30.05S
GRAND CANYON   CLEAR     46  37  71 CALM      30.24S
KINGMAN        CLEAR     64  45  49 S10       30.04F
FLAGSTAFF      CLEAR     49  40  71 CALM      30.28S

$$

REGIONAL REPORTS    NEVADA/IDAHO/WYOMING

CITY           SKY/WX    TMP DP  RH WIND       PRES   REMARKS
LAS VEGAS, NV  PTCLDY    77  40  26 S9        29.90S
ELY            CLEAR     58  30  34 S15G25    30.03R
ELKO           CLOUDY    57  29  34 W17G26    29.98R
POCATELLO, ID  MOCLDY    69  31  24 S36G53    29.78F
BURLEY         CLOUDY    62  31  31 W14       29.88R
EVANSTON, WY   PTCLDY    56  32  40 SW22      30.02S
ROCK SPRINGS   PTCLDY    56  29  35 SW20      30.00F
KEMMERER       PTCLDY    50  21  32 CALM      30.03S

$$



USA.gov is the U.S. government's official web portal to all federal, state and local government web resources and services.